This demonstration page uses our WeatherBlox Daily Observations layout. Learn more.

Left ArrowRight Arrow

39.29038, -76.61219

Hourly Observations for January 16, 2022

Temp ( °F °C ) Dew Point ( °F °C ) Humidity (%) Winds ( mph kmh ) Pressure ( in mb ) Visibility ( mi km ) Precip ( " mm )
12:54 am 00:54 Clear 17 -8.3 -1 -18.3 45 45 NE 6 9 30.40 1030 10 16 0.00 0.00
1:54 am 01:54 Clear 17 -8.3 -1 -18.3 45 45 NNE 7 11 30.41 1030 10 16 0.00 0.00
2:54 am 02:54 Clear 16 -8.9 -1 -18.3 47 47 NNE 6 9 30.40 1029 10 16 0.00 0.00
3:54 am 03:54 Clear 15 -9.4 0 -17.8 51 51 NNE 6 9 30.37 1029 10 16 0.00 0.00
4:54 am 04:54 Clear 15 -9.4 1 -17.2 53 53 NE 7 11 30.36 1028 10 16 0.00 0.00
5:54 am 05:54 Mostly Clear 15 -9.4 1 -17.2 53 53 Calm 30.37 1029 10 16 0.00 0.00
6:54 am 06:54 Partly Cloudy 15 -9.4 1 -17.2 53 53 NNE 7 11 30.37 1028 10 16 0.00 0.00
7:54 am 07:54 Mostly Cloudy 16 -8.9 2 -16.7 54 54 VRB 3 6 30.37 1029 10 16 0.00 0.00
8:54 am 08:54 Mostly Cloudy 17 -8.3 4 -15.6 56 56 NE 7 11 30.36 1028 10 16 0.00 0.00
9:54 am 09:54 Mostly Cloudy 19 -7.2 5 -15 54 54 NNE 9 15 30.34 1027 10 16 0.00 0.00
10:54 am 10:54 Cloudy 20 -6.7 7 -13.9 57 57 ENE 7 11 30.31 1027 10 16 0.00 0.00
11:28 am 11:28 Cloudy 22 -5.6 7 -13.9 52 52 NE 8 13 30.31 1026 10 16 0.00 0.00
11:54 am 11:54 Cloudy 22 -5.6 7 -13.9 52 52 NNE 7 11 30.27 1025 10 16 0.00 0.00
12:27 pm 12:27 Cloudy 23 -5 9 -12.8 55 55 NNE 10 17 30.23 1024 10 16 0.00 0.00
12:54 pm 12:54 Cloudy 24 -4.4 11 -11.7 57 57 NE 13 20 30.17 1022 10 16 0.00 0.00
1:54 pm 13:54 Cloudy 26 -3.3 14 -10 60 60 NE 10 17 30.12 1020 10 16 0.00 0.00
2:22 pm 14:22 Cloudy with Light Snow 27 -2.8 15 -9.4 61 61 NE 9 15 30.09 1019 9 14 0.00 0.00
2:46 pm 14:46 Cloudy with Light Snow 27 -2.8 18 -7.8 69 69 ENE 12 19 30.08 1019 3 4 0.00 0.00
2:54 pm 14:54 Cloudy with Light Snow 27 -2.8 18 -7.8 69 69 ENE 12 19 30.07 1018 3 4 0.00 0.00
3:03 pm 15:03 Cloudy with Light Snow 27 -2.8 20 -6.7 75 75 NE 9 15 30.07 1018 2 2 0.00 0.00
3:31 pm 15:31 Mostly Cloudy with Light Snow 27 -2.8 22 -5.6 81 81 NE 9 15 30.05 1018 1 1 0.01 0.25
3:46 pm 15:46 Mostly Cloudy with Light Snow 27 -2.8 23 -5 85 85 NE 9 15 30.03 1017 1 1 0.02 0.51
3:54 pm 15:54 Mostly Cloudy with Light Snow 27 -2.8 24 -4.4 89 89 NE 9 15 30.03 1017 1 1 0.03 0.76
4:54 pm 16:54 Cloudy with Snow 27 -2.8 25 -3.9 92 92 NE 15 24 29.96 1014 0 0 0.06 1.52
5:54 pm 17:54 Cloudy with Snow 29 -1.7 26 -3.3 89 89 ENE 18 30 29.88 1012 1 1 0.08 2.03
6:36 pm 18:36 Cloudy with Mist and Fog 31 -0.6 28 -2.2 89 89 ENE 20 31 29.81 1010 3 5 0.06 1.52
6:46 pm 18:46 Cloudy with Light Freezing Rain 31 -0.6 28 -2.2 89 89 ENE 21 33 29.80 1009 6 10 0.06 1.52
6:54 pm 18:54 Cloudy with Light Freezing Rain 31 -0.6 28 -2.2 89 89 ENE 20 31 29.78 1009 5 8 0.07 1.78
7:54 pm 19:54 Cloudy with Light Rain 33 0.6 31 -0.6 92 92 ENE 21 33 29.69 1006 5 8 0.06 1.52
8:54 pm 20:54 Cloudy with Light Rain 35 1.7 33 0.6 93 93 ENE 24 39 29.56 1001 4 6 0.12 3.05
9:54 pm 21:54 Cloudy with Rain 37 2.8 35 1.7 93 93 ENE 25 41 29.44 997 4 6 0.18 4.57
10:54 pm 22:54 Cloudy with Rain 39 3.9 37 2.8 93 93 ENE 29 46 29.31 992 4 6 0.17 4.32
11:19 pm 23:19 Cloudy with Rain 40 4.4 39 3.9 97 97 SSW 15 24 29.36 994 2 3 0.13 3.30
11:21 pm 23:21 Cloudy with Heavy Rain 40 4.4 39 3.9 97 97 SSW 12 19 29.36 994 1 1 0.15 3.81
11:31 pm 23:31 Cloudy with Rain 40 4.4 38 3.3 93 93 SE 8 13 29.35 994 2 2 0.30 7.62
11:38 pm 23:38 Cloudy with Rain 41 5 37 2.8 86 86 ENE 14 22 29.33 993 3 5 0.32 8.13
11:46 pm 23:46 Cloudy with Rain 40 4.4 36 2.2 86 86 NE 30 48 29.21 989 2 3 0.36 9.14
11:51 pm 23:51 Cloudy with Rain 39 4 37 3 93 93 NE 22 35 29.16 987 3 4 0.38 9.65
11:54 pm 23:54 Cloudy with Light Rain 39 3.9 37 2.8 93 93 ENE 21 33 29.18 988 3 4 0.38 9.65

Powered by AerisWeather